Home > Time Zones > World Clock > Weather > Egypt > Cairo > Past weeks

Flag for Egypt Weather past 2 weeks in Cairo, Egypt

Now
75 °F

Sunny.


Feels Like: 75 °F
Forecast: 77 / 100 °F
Wind: No wind

Location: Cairo Airport

Current Time: Aug 1, 2014 at 7:17:04 AM

Latest Report: Aug 1, 2014 at 7:00 AM


Visibility: 10 mi

Pressure: 29.74 "Hg

Humidity: 83%

Dew point: 70 °F

Location of CairoLocation

Historic Weather in Cairo — Graph

°F

Cairo temperature yesterday

Maximum temperature yesterday: 95 °F (at 3:30 PM)
Minimum temperature yesterday: 75 °F (at 3:00 AM)
Average temperature yesterday: 84 °F

Past Weeks' High & Low Weather Summary

 TemperatureHumidityPressure
High97 °F (Jul 29, 3:00 PM)89% (Jul 23, 4:30 AM)29.95 "Hg (Jul 23, 4:30 AM)
Low73 °F (Jul 17, 5:00 AM)19% (Jul 24, 12:00 PM)29.74 "Hg (Jul 21, 1:30 PM)
Average84 °F55%29.81 "Hg
* Reported Jul 17 5:00 AM — Aug 1 6:30 AM, Cairo, Weather by CustomWeather, © 2014

Note: Actual official high and low records may vary slightly from our data, if they occured in-between our weather recording intervals... More about our weather records

Advertising

Cairo weather history for previous 24 hours

 ConditionsComfort  
Time TempWeatherWind HumidityBarometerVisibility
6:30 AM
Aug 1
75 °FClear.No wind78%29.74 "Hg4 mi
6:00 AM75 °FClear.No wind78%29.74 "Hg4 mi
5:30 AM75 °FClear.No wind78%29.74 "Hg4 mi
5:00 AM75 °FClear.No wind78%29.74 "Hg4 mi
4:30 AM77 °FClear.No wind74%29.74 "Hg4 mi
4:00 AM77 °FClear.No wind74%29.74 "Hg4 mi
3:30 AM79 °FClear.No wind74%29.77 "Hg4 mi
3:00 AM79 °FClear.No wind70%29.77 "Hg10 mi
2:30 AM79 °FClear.6 mph70%29.77 "Hg10 mi
2:00 AM79 °FClear.6 mph74%29.77 "Hg10 mi
1:30 AM81 °FClear.6 mph70%29.77 "Hg10 mi
1:00 AM81 °FClear.5 mph66%29.77 "Hg10 mi
11:30 PM
Jul 31
82 °FClear.6 mph62%29.77 "Hg10 mi
11:00 PM82 °FClear.6 mph62%29.77 "Hg10 mi
10:30 PM82 °FClear.6 mph62%29.77 "Hg10 mi
10:00 PM84 °FClear.8 mph58%29.77 "Hg10 mi
9:30 PM84 °FClear.8 mph58%29.77 "Hg10 mi
9:00 PM86 °FClear.9 mph59%29.77 "Hg10 mi
8:30 PM86 °FClear.9 mph55%29.77 "Hg10 mi
8:00 PM88 °FClear.9 mph49%29.74 "Hg10 mi
7:30 PM88 °FClear.9 mph49%29.74 "Hg10 mi
7:00 PM90 °FClear.10 mph43%29.74 "Hg10 mi
6:30 PM90 °FSunny.10 mph43%29.74 "Hg10 mi
6:00 PM91 °FSunny.9 mph41%29.74 "Hg10 mi
5:30 PM91 °FSunny.9 mph44%29.74 "Hg10 mi
5:00 PM93 °FSunny.8 mph41%29.74 "Hg10 mi
4:30 PM93 °FSunny.8 mph39%29.74 "Hg10 mi
4:00 PM93 °FSunny.8 mph36%29.74 "Hg10 mi
3:30 PM95 °FSunny.8 mph34%29.74 "Hg10 mi
3:00 PM93 °FSunny.8 mph39%29.74 "Hg10 mi
2:30 PM93 °FSunny.6 mph36%29.74 "Hg10 mi
2:00 PM91 °FSunny.9 mph41%29.77 "Hg10 mi
1:30 PM93 °FSunny.7 mph34%29.77 "Hg10 mi
1:00 PM91 °FSunny.8 mph38%29.77 "Hg10 mi
12:30 PM91 °FSunny.5 mph34%29.77 "Hg10 mi
12:00 PM90 °FSunny.8 mph41%29.77 "Hg10 mi
11:30 AM88 °FSunny.5 mph46%29.80 "Hg10 mi
11:00 AM88 °FSunny.5 mph46%29.80 "Hg10 mi
10:30 AM84 °FSunny.6 mph55%29.80 "Hg10 mi
10:00 AM84 °FSunny.6 mph55%29.80 "Hg10 mi
9:30 AM81 °FSunny.5 mph62%29.80 "Hg10 mi
9:00 AM81 °FSunny.5 mph62%29.80 "Hg10 mi
8:30 AM79 °FSunny.2 mph70%29.80 "Hg10 mi
8:00 AM77 °FClear.2 mph74%29.80 "Hg4 mi
7:30 AM75 °FFog.6 mph78%29.80 "Hg2 mi
7:00 AM75 °FFog.6 mph78%29.80 "Hg2 mi
Weather by CustomWeather, © 2014

See weather overviewHow to use our weather pages